Regional Weather Roundup
Issued by NWS Albany, NY

Home | Current Version | Previous Version | Text Only | Print | Product List | Glossary On
Versions: 1 2 3 4 5 6 7 8 9 10 11 12 13 14 15 16 17 18 19 20 21 22 23 24 25 26 27 28 29 30 31 32 33 34 35 36 37 38 39 40 41 42 43 44 45 46 47 48 49 50
000
ASUS41 KALY 300310
RWRALY

NEW YORK STATE HOURLY WEATHER ROUNDUP
NATIONAL WEATHER SERVICE ALBANY NY
1100 PM EDT THU SEP 29 2016

NOTE: "FAIR" INDICATES FEW OR NO CLOUDS BELOW 12,000 FEET WITH NO
SIGNIFICANT WEATHER AND/OR NO OBSTRUCTIONS TO VISIBILITY.

NYZ032-033-038>043-046>054-057>066-NYZ062>081-082-084-300400-
EAST


CITY           SKY/WX    TMP DP  RH WIND       PRES   REMARKS
ALBANY         CLOUDY    56  44  64 NE5       30.46R
GLENS FALLS    PTCLDY    58  44  60 NE8       30.47R
POUGHKEEPSIE   MOCLDY    57  45  64 NE7       30.42R
NEWBURGH       CLOUDY    57  48  72 E14       30.43R
MONTGOMERY     CLOUDY    58  47  66 NE10G22   30.40F
WHITE PLAINS   MOCLDY    56  47  71 NE15G22   30.39F
ISLIP          CLOUDY    59  52  77 NE14G22   30.38S
NEW YORK CITY  LGT RAIN  64  54  69 NE25G33   30.36F
CENTRAL PARK   CLOUDY    60  52  74 E10G28    30.39F
$$

NYZ005>009-017-018-044>046-055-056-300400-
CENTRAL


CITY           SKY/WX    TMP DP  RH WIND       PRES   REMARKS
FULTON         CLOUDY    59  49  69 E5        30.39R
SYRACUSE       CLOUDY    57  49  74 E8        30.37S
ROME           CLOUDY    58  48  69 E9        30.42S
ELMIRA         CLOUDY    57  52  83 E6        30.33F
BINGHAMTON     MOCLDY    54  45  71 E9        30.35S
MONTICELLO     CLOUDY    54  45  71 E15G22    30.40S
$$

NYZ026>034-041>043-087-300400-
NORTH


CITY           SKY/WX    TMP DP  RH WIND       PRES   REMARKS
WATERTOWN      CLOUDY    55  49  80 NE7       30.42S
FORT DRUM      NOT AVBL
OGDENSBURG     FAIR      58  47  67 NE8       30.46F
MASSENA        CLOUDY    58  46  64 NE13      30.49R
SARANAC LAKE   CLOUDY    54  45  71 NE8       30.45F
PLATTSBURGH    CLOUDY    58  45  62 N10       30.48S
$$

NYZ001>004-010>016-019>021-085-300400-
WEST


CITY           SKY/WX    TMP DP  RH WIND       PRES   REMARKS
NIAGARA FALLS  CLOUDY    59  50  72 E9        30.32S
BUFFALO        CLOUDY    57  51  80 E10       30.32S
DUNKIRK        CLOUDY    61  55  81 E10       30.27R
JAMESTOWN      CLOUDY    57  52  82 E12       30.26S
WELLSVILLE     MOCLDY    53  51  93 SE8       30.33F
ROCHESTER      CLOUDY    59  50  72 E10       30.36S
PENN YAN       CLOUDY    56  52  86 CALM      30.36F
$$

             KEY
       WCI = WIND CHILL INDEX
       VSB = VISIBILITY
       HX  = HEAT INDEX
$$



USA.gov is the U.S. government's official web portal to all federal, state and local government web resources and services.